When you browse on this site, cookies collect data to enhance your experience and personalize the content and advertising you see.
Visit our Privacy Policy to learn more. By continuing to use the site, you agree to this use of cookies and data.
  • In Portugal
  • List of Countries
  • For 7 days
  • Water Temperature
  • Satellite Maps
  • Weather Map
  • Weather Widgets
  • user-avatar
    Login

    Hourly Weather Wiktoria

    Today, 20 July, Saturday

    Time Temperature Precipitation Wind Pressure Humidity
    00:00 +8°C° 0 mm 3 mps 755 mmHg 82%
    01:00 +9°C° 0 mm 3 mps 754 mmHg 80%
    02:00 +9°C° 0 mm 3 mps 754 mmHg 80%
    03:00 +9°C° 0 mm 3 mps 754 mmHg 79%
    04:00 +9°C° 0 mm 3 mps 754 mmHg 76%
    05:00 +8°C° 0 mm 3 mps 754 mmHg 80%
    06:00 +7°C° 0 mm 3 mps 754 mmHg 85%
    07:00 +5°C° 0 mm 3 mps 754 mmHg 90%
    08:00 +7°C° 0 mm 4 mps 754 mmHg 87%
    09:00 +8°C° 0 mm 4 mps 754 mmHg 84%
    10:00 +9°C° 0 mm 5 mps 754 mmHg 81%
    11:00 +10°C° 0 mm 5 mps 753 mmHg 78%
    12:00 +12°C° 0 mm 5 mps 752 mmHg 75%
    13:00 +14°C° 0 mm 5 mps 752 mmHg 72%
    14:00 +13°C° 0 mm 5 mps 751 mmHg 73%
    15:00 +13°C° 0 mm 5 mps 751 mmHg 74%
    16:00 +13°C° 0 mm 4 mps 750 mmHg 75%
    17:00 +12°C° 0 mm 4 mps 750 mmHg 76%
    18:00 +12°C° 0 mm 4 mps 750 mmHg 76%
    19:00 +11°C° 0 mm 4 mps 750 mmHg 77%
    20:00 +10°C° 0 mm 5 mps 750 mmHg 79%
    21:00 +9°C° 0 mm 5 mps 750 mmHg 81%
    22:00 +8°C° 0 mm 5 mps 750 mmHg 84%
    23:00 +8°C° 0 mm 5 mps 749 mmHg 85%

    Tomorrow, 21 July, Sunday

    Time Temperature Precipitation Wind Pressure Humidity
    00:00 +7°C° 0 mm 5 mps 749 mmHg 86%
    01:00 +6°C° 0 mm 5 mps 748 mmHg 87%
    02:00 +6°C° 0 mm 5 mps 748 mmHg 87%
    03:00 +6°C° 0 mm 5 mps 747 mmHg 86%
    04:00 +5°C° 0 mm 6 mps 747 mmHg 86%
    05:00 +6°C° 0 mm 5 mps 747 mmHg 86%
    06:00 +5°C° 0 mm 5 mps 747 mmHg 85%
    07:00 +5°C° 0 mm 5 mps 747 mmHg 85%
    08:00 +6°C° 0 mm 5 mps 747 mmHg 82%
    09:00 +7°C° 0 mm 5 mps 747 mmHg 79%
    10:00 +9°C° 0 mm 5 mps 748 mmHg 76%
    11:00 +8°C° 0.4 mm 4 mps 747 mmHg 80%
    12:00 +9°C° 0.4 mm 3 mps 747 mmHg 84%
    13:00 +9°C° 0.4 mm 2 mps 747 mmHg 87%
    14:00 +10°C° 0.2 mm 2 mps 747 mmHg 87%
    15:00 +10°C° 0.2 mm 2 mps 747 mmHg 87%
    16:00 +10°C° 0.2 mm 2 mps 747 mmHg 87%
    17:00 +9°C° 0 mm 2 mps 748 mmHg 89%
    18:00 +8°C° 0 mm 2 mps 748 mmHg 91%
    19:00 +7°C° 0 mm 1 mps 749 mmHg 94%
    20:00 +7°C° 0 mm 1 mps 749 mmHg 94%
    21:00 +7°C° 0 mm 1 mps 749 mmHg 94%
    22:00 +6°C° 0 mm 1 mps 750 mmHg 94%
    23:00 +6°C° 0 mm 1 mps 750 mmHg 94%

    Day after tomorrow, 22 July, Monday

    Time Temperature Precipitation Wind Pressure Humidity
    00:00 +5°C° 0 mm 2 mps 750 mmHg 94%
    01:00 +5°C° 0 mm 2 mps 750 mmHg 94%
    02:00 +5°C° 0 mm 2 mps 750 mmHg 94%
    03:00 +4°C° 0 mm 2 mps 750 mmHg 94%
    04:00 +4°C° 0 mm 2 mps 750 mmHg 94%
    05:00 +4°C° 0 mm 2 mps 750 mmHg 94%
    06:00 +4°C° 0 mm 2 mps 750 mmHg 95%
    07:00 +4°C° 0 mm 2 mps 750 mmHg 95%
    08:00 +4°C° 0 mm 3 mps 750 mmHg 93%
    09:00 +7°C° 0 mm 3 mps 750 mmHg 91%
    10:00 +8°C° 0 mm 3 mps 750 mmHg 89%
    11:00 +10°C° 0 mm 4 mps 750 mmHg 83%
    12:00 +11°C° 0 mm 4 mps 749 mmHg 77%
    13:00 +13°C° 0 mm 5 mps 748 mmHg 71%
    14:00 +13°C° 0 mm 5 mps 748 mmHg 71%
    15:00 +13°C° 0 mm 4 mps 748 mmHg 72%
    16:00 +13°C° 0 mm 4 mps 747 mmHg 72%
    17:00 +11°C° 0 mm 4 mps 748 mmHg 75%
    18:00 +10°C° 0 mm 4 mps 748 mmHg 77%
    19:00 +7°C° 0 mm 4 mps 748 mmHg 79%
    20:00 +7°C° 0 mm 4 mps 748 mmHg 78%
    21:00 +7°C° 0 mm 4 mps 748 mmHg 77%
    22:00 +6°C° 0 mm 4 mps 748 mmHg 75%
    23:00 +6°C° 0 mm 4 mps 748 mmHg 74%

    23 July, Tuesday

    Time Temperature Precipitation Wind Pressure Humidity
    00:00 +6°C° 0 mm 4 mps 747 mmHg 74%
    01:00 +6°C° 0 mm 4 mps 747 mmHg 73%
    02:00 +6°C° 0 mm 4 mps 747 mmHg 71%
    03:00 +8°C° 0 mm 3 mps 747 mmHg 68%
    04:00 +8°C° 0 mm 3 mps 747 mmHg 65%
    05:00 +8°C° 0.2 mm 2 mps 748 mmHg 70%
    06:00 +8°C° 0.2 mm 2 mps 748 mmHg 76%
    07:00 +7°C° 0.2 mm 2 mps 749 mmHg 81%
    08:00 +8°C° 0.1 mm 2 mps 749 mmHg 83%
    09:00 +8°C° 0.1 mm 2 mps 749 mmHg 85%
    10:00 +9°C° 0.1 mm 2 mps 750 mmHg 87%
    11:00 +10°C° 0.1 mm 3 mps 749 mmHg 82%
    12:00 +11°C° 0.1 mm 3 mps 749 mmHg 77%
    13:00 +11°C° 0.1 mm 4 mps 749 mmHg 72%
    14:00 +11°C° 0.1 mm 4 mps 748 mmHg 74%
    15:00 +11°C° 0.1 mm 4 mps 748 mmHg 76%
    16:00 +11°C° 0.1 mm 3 mps 747 mmHg 79%
    17:00 +10°C° 0 mm 4 mps 747 mmHg 78%
    18:00 +10°C° 0 mm 4 mps 747 mmHg 76%
    19:00 +8°C° 0 mm 4 mps 747 mmHg 75%
    20:00 +8°C° 0.2 mm 5 mps 747 mmHg 77%
    21:00 +8°C° 0.2 mm 5 mps 748 mmHg 80%
    22:00 +8°C° 0.2 mm 6 mps 748 mmHg 82%
    23:00 +6°C° 0 mm 5 mps 749 mmHg 84%

    24 July, Wednesday

    Time Temperature Precipitation Wind Pressure Humidity
    00:00 +5°C° 0 mm 5 mps 749 mmHg 87%
    01:00 +3°C° 0 mm 4 mps 750 mmHg 89%
    02:00 +1°C° 0 mm 4 mps 750 mmHg 90%
    03:00 +2°C° 0 mm 3 mps 751 mmHg 90%
    04:00 +1°C° 0 mm 3 mps 751 mmHg 91%
    05:00 0°C° 0 mm 3 mps 752 mmHg 92%
    06:00 0°C° 0 mm 3 mps 753 mmHg 93%
    07:00 -1°C° 0 mm 2 mps 754 mmHg 94%
    08:00 +1°C° 0 mm 3 mps 754 mmHg 89%
    09:00 +3°C° 0 mm 3 mps 755 mmHg 84%
    10:00 +4°C° 0 mm 3 mps 755 mmHg 79%
    11:00 +6°C° 0 mm 4 mps 755 mmHg 75%
    12:00 +7°C° 0 mm 4 mps 755 mmHg 70%
    13:00 +8°C° 0 mm 5 mps 755 mmHg 66%
    14:00 +8°C° 0 mm 4 mps 755 mmHg 68%
    15:00 +8°C° 0 mm 4 mps 755 mmHg 69%
    16:00 +9°C° 0 mm 3 mps 755 mmHg 71%
    17:00 +8°C° 0 mm 3 mps 755 mmHg 74%
    18:00 +7°C° 0 mm 3 mps 756 mmHg 77%
    19:00 +5°C° 0 mm 2 mps 756 mmHg 80%
    20:00 +5°C° 0 mm 2 mps 757 mmHg 83%
    21:00 +4°C° 0 mm 2 mps 757 mmHg 86%
    22:00 +4°C° 0 mm 1 mps 757 mmHg 89%
    23:00 +4°C° 0 mm 1 mps 757 mmHg 89%

    25 July, Thursday

    Time Temperature Precipitation Wind Pressure Humidity
    00:00 +4°C° 0 mm 1 mps 757 mmHg 89%
    01:00 +4°C° 0 mm 1 mps 757 mmHg 90%
    02:00 +3°C° 0 mm 1 mps 757 mmHg 90%
    03:00 +3°C° 0 mm 1 mps 757 mmHg 90%
    04:00 +3°C° 0 mm 1 mps 757 mmHg 91%
    05:00 +3°C° 0 mm 1 mps 757 mmHg 91%
    06:00 +1°C° 0 mm 0 mps 757 mmHg 91%
    07:00 +1°C° 0 mm 0 mps 757 mmHg 91%
    08:00 +3°C° 0 mm 0 mps 757 mmHg 87%
    09:00 +5°C° 0 mm 0 mps 757 mmHg 84%
    10:00 +7°C° 0 mm 1 mps 758 mmHg 80%
    11:00 +8°C° 0 mm 1 mps 757 mmHg 77%
    12:00 +9°C° 0 mm 2 mps 757 mmHg 73%
    13:00 +10°C° 0 mm 2 mps 756 mmHg 70%
    14:00 +10°C° 0 mm 2 mps 756 mmHg 71%
    15:00 +9°C° 0 mm 2 mps 756 mmHg 72%
    16:00 +9°C° 0 mm 2 mps 756 mmHg 73%
    17:00 +10°C° 0 mm 1 mps 756 mmHg 73%
    18:00 +9°C° 0 mm 1 mps 756 mmHg 72%
    19:00 +9°C° 0 mm 1 mps 756 mmHg 72%
    20:00 +8°C° 0 mm 1 mps 756 mmHg 73%
    21:00 +7°C° 0 mm 2 mps 756 mmHg 75%
    22:00 +7°C° 0 mm 2 mps 756 mmHg 76%
    23:00 +6°C° 0 mm 2 mps 756 mmHg 78%
    Show more